Regional Weather Roundup
Issued by NWS

Home | Current Version | Previous Version | Graphics & Text | Print | Product List | Glossary On
Versions: 1 2 3 4 5 6 7 8 9 10 11 12 13 14 15 16 17 18 19 20 21 22 23 24 25 26 27 28 29 30 31 32 33 34 35 36 37 38 39 40 41 42 43 44 45 46 47 48
000
ASUS45 KCYS 230110
RWRWY

WYOMING REGIONAL WEATHER ROUNDUP
NATIONAL WEATHER SERVICE CHEYENNE WY
700 PM MDT WED MAR 22 2017

NOTE:  "FAIR" INDICATES FEW OR NO CLOUDS BELOW 12,000 FEET
WITH NO SIGNIFICANT WEATHER AND/OR OBSTRUCTIONS TO VISIBILITY.

WYZ001-230200-
YELLOWSTONE NATIONAL PARK

CITY           SKY/WX    TMP DP  RH WIND       PRES   REMARKS
LK YELLOWSTONE   N/A     35  30  82 W3        29.93R
W YELLOWSTONE  NOT AVBL

$$
WYZ002>013-054>058-071-098>099-230200-
NORTHERN WYOMING

CITY           SKY/WX    TMP DP  RH WIND       PRES   REMARKS
JACKSON        NOT AVBL
CODY           FAIR      58  35  42 NW3       29.76R
GREYBULL       FAIR      63  40  42 N6        29.68F
WORLAND        FAIR      63  35  35 SW14      29.69F
SHERIDAN       FAIR      57  41  55 CALM      29.76F
BUFFALO        MOCLDY    53  38  56 CALM      29.80S
GILLETTE       FAIR      57  40  52 E7        29.77F
HULETT         FAIR      57  37  47 E7        29.79S
NEWCASTLE      FAIR      63  32  31 W7G20     29.79R

$$
WYZ014>020-022>026-101>103-230200-
CENTRAL WYOMING

CITY           SKY/WX    TMP DP  RH WIND       PRES   REMARKS
BIG PINEY      CLOUDY    39  35  86 N12       29.89R WCI  32
PINEDALE       DRIZZLE   37  36  93 N8        29.91R WCI  31
DUBOIS         MOCLDY    41  30  65 NE10      29.87R
LANDER         FAIR      50  37  61 SE6       29.79R
RIVERTON       FAIR      53  36  52 W9        29.79S
CASPER         FAIR      53  36  52 SW7       29.80F
DOUGLAS        FAIR      59  37  44 NW8       29.81R

$$
WYZ021-027>030-104>119-230200-
SOUTHERN WYOMING

CITY           SKY/WX    TMP DP  RH WIND       PRES   REMARKS
EVANSTON       FAIR      43  33  68 NW8       29.87S
KEMMERER         N/A     39  34  81 NW5       29.89S
FORT BRIDGER   CLOUDY    47  37  69 N7        29.90S
ROCK SPRINGS   CLOUDY    46  40  79 NW13      29.85F
DIXON            N/A     59  24  25 SW12G20   29.90S
RAWLINS        CLOUDY    59  21  23 S22G30    29.86R
SARATOGA       FAIR      54  23  30 SW7       29.90S
LARAMIE        FAIR      56  19  23 SW22      29.89S
CHEYENNE       FAIR      61  31  32 S12       29.87S
TORRINGTON     FAIR      66  31  27 SE14      29.78R
PINE BLUFFS    FAIR      63  34  34 SE15G23   29.84S

$$



USA.gov is the U.S. government's official web portal to all federal, state and local government web resources and services.